Content
SEND FEEDBACK

Daily
Averages
Monthly
Summary
French Polynesia

HITIAA, FRENCH POLYNESIA


Home > Oceania > French Polynesia
Elevation: 7 feet     Latitude: 17 33S     Longitude: 149 37W

WEATHER
 
SELECT A DAY
Number of Records: 208,679;   Date Range: 6/30/96 - 8/10/14
 
SHARE

PRINT THIS DATA

[ ← Previous Day ]
WEATHER ALMANAC - MAY 6, 2013
[ Next Day → ]
[ °C ]   °F
Weather ElementAverageHighLow
Temperature80.8 °F86 °F (12:30 pm)77 °F (3:30 am)
Dewpoint73.5 °F75.2 °F (12:30 pm)71.6 °F (2:30 am)
Humidity78 %89 % (4:00 am)65 % (2:00 pm)
Barometer29.84 in29.90 in (11:00 pm)29.80 in (1:00 am)
Wind Speed4.5 mph9.2 mph (1:30 pm)
Weather ElementAverage
Visibility7.2 mi
Wind DirectionESE (122.4 °)

Weather ElementTotal
Precipitation---
Cooling Degree Days16.5 (Base 65)
Growing Degree Days31.5 (Base 50)
Averaged from 51 records on May 6, 2013
WEATHER CONDITIONS BREAKOUT
WIND DIRECTION BREAKOUT
WEATHER BY HOUR - MAY 6, 2013
[ °C ]   °F
Local TimeTemperatureDewpointHumidityBarometerVisibilityWind DirectionWind SpeedGust SpeedPrecipitationEventsConditions
1:00 AM78.8 °F73.4 °F83 %29.80 in6.2 miVariable2.3 mphRainLight Rain
1:30 AM78.8 °F73.4 °F83 %29.80 in6.2 miSouth (190°)3.5 mphRainLight Rain
2:00 AM78.0 °F73.0 °F79 %29.81 in12.0 miNE (40°)2.3 mphRainLight Rain
2:00 AM78.8 °F73.4 °F83 %29.80 in6.2 miVariable2.3 mphScattered Clouds
2:30 AM78.8 °F71.6 °F78 %29.80 in6.2 miNE (50°)4.6 mphScattered Clouds
3:30 AM77.0 °F71.6 °F83 %29.80 in6.2 miVariable3.5 mph
4:00 AM77.0 °F73.4 °F89 %29.80 in6.2 miSouth (180°)5.8 mphOvercast
4:30 AM78.8 °F71.6 °F78 %29.80 in6.2 miVariable1.2 mph
5:00 AM78.0 °F72.0 °F77 %29.82 in37.0 miESE (120°)4.5 mphClear
5:00 AM78.8 °F71.6 °F78 %29.80 in6.2 miVariable2.3 mph
5:30 AM78.8 °F71.6 °F78 %29.80 in6.2 miSouth (180°)3.5 mphOvercast
6:00 AM78.8 °F71.6 °F78 %29.83 in6.2 miSSE (160°)4.6 mphScattered Clouds
6:30 AM78.8 °F71.6 °F78 %29.83 in6.2 miSouth (170°)4.6 mphMostly Cloudy
7:00 AM78.8 °F71.6 °F78 %29.83 in6.2 miSouth (190°)4.6 mphMostly Cloudy
7:30 AM78.8 °F71.6 °F78 %29.86 in5.0 miSouth (180°)6.9 mphRainLight Rain
8:00 AM77.0 °F73.0 °F83 %29.88 in7.0 miSouth (190°)5.8 mphRainLight Rain
8:00 AM77.0 °F73.4 °F89 %29.86 in6.2 miSouth (190°)5.8 mphMostly Cloudy
8:30 AM77.0 °F73.4 °F89 %29.89 in6.2 miSouth (180°)2.3 mphMostly Cloudy
9:00 AM78.8 °F73.4 °F83 %29.89 in6.2 miVariable2.3 mphMostly Cloudy
9:30 AM78.8 °F73.4 °F83 %29.89 in3.1 miCalmRainLight Rain
10:00 AM80.6 °F73.4 °F79 %29.89 in6.2 miSSW (210°)3.5 mphMostly Cloudy
10:30 AM80.6 °F73.4 °F79 %29.89 in6.2 miSW (220°)4.6 mphMostly Cloudy
11:00 AM82.4 °F73.4 °F74 %29.86 in6.2 miWSW (250°)3.5 mphMostly Cloudy
11:30 AM84.2 °F73.4 °F70 %29.86 in6.2 miVariable3.5 mphScattered Clouds
12:00 PM84.2 °F73.4 °F70 %29.83 in6.2 miNorth (350°)5.8 mphScattered Clouds
12:30 PM86.0 °F75.2 °F70 %29.83 in6.2 miWest (280°)3.5 mphScattered Clouds
1:00 PM84.2 °F73.4 °F70 %29.83 in6.2 miSW (230°)5.8 mphScattered Clouds
1:30 PM84.2 °F73.4 °F70 %29.80 in6.2 miSSW (210°)9.2 mphScattered Clouds
2:00 PM84.0 °F74.0 °F65 %29.82 in12.0 miWSW (240°)8.1 mphScattered Clouds
2:00 PM84.2 °F73.4 °F70 %29.80 in6.2 miWSW (240°)8.1 mphScattered Clouds
2:30 PM86.0 °F75.2 °F70 %29.80 in6.2 miWNW (290°)4.6 mphPartly Cloudy
3:00 PM86.0 °F75.2 °F70 %29.80 in6.2 miNW (320°)6.9 mphPartly Cloudy
3:30 PM86.0 °F75.2 °F70 %29.80 in6.2 miNorth (350°)5.8 mphScattered Clouds
4:06 PM84.2 °F73.4 °F70 %29.80 in6.2 miEast (80°)4.6 mphPartly Cloudy
4:30 PM84.2 °F75.2 °F74 %29.80 in6.2 miNE (40°)9.2 mphPartly Cloudy
5:00 PM84.0 °F75.0 °F67 %29.83 in12.0 miNNE (30°)4.6 mphPartly Cloudy
5:00 PM84.2 °F75.2 °F74 %29.83 in6.2 miVariable4.6 mphScattered Clouds
5:30 PM82.4 °F75.2 °F79 %29.83 in6.2 miVariable2.3 mphScattered Clouds
6:00 PM82.4 °F73.4 °F74 %29.83 in6.2 miNW (320°)4.6 mphScattered Clouds
6:30 PM82.4 °F73.4 °F74 %29.83 in6.2 miVariable4.6 mphScattered Clouds
7:30 PM82.4 °F73.4 °F74 %29.86 in6.2 miVariable3.5 mphScattered Clouds
8:00 PM82.0 °F74.0 °F70 %29.88 in12.0 miENE (60°)8.9 mphMostly Cloudy
8:00 PM82.4 °F73.4 °F74 %29.86 in6.2 miENE (60°)4.6 mphScattered Clouds
8:30 PM80.6 °F73.4 °F79 %29.89 in6.2 miENE (60°)8.1 mphScattered Clouds
9:00 PM80.6 °F73.4 °F79 %29.89 in6.2 miNNE (30°)3.5 mphRainLight Rain Showers
9:30 PM78.8 °F75.2 °F89 %29.89 in6.2 miNE (50°)4.6 mphRainLight Rain Showers
10:00 PM78.8 °F75.2 °F89 %29.89 in5.0 miVariable2.3 mphRainLight Rain Showers
10:30 PM78.8 °F75.2 °F89 %29.89 in6.2 miVariable2.3 mphMostly Cloudy
11:00 PM78.0 °F75.0 °F88 %29.90 in6.0 miESE (120°)2.2 mphRainLight Rain
11:00 PM78.8 °F75.2 °F89 %29.89 in6.2 miVariable2.3 mphMostly Cloudy
11:30 PM78.8 °F75.2 °F89 %29.89 in6.2 miSouth (180°)5.8 mphMostly Cloudy
Hourly data recorded from NTAA, located miles away from Hitiaa, French Polynesia







STORIES FROM OUR PARTNERS